Theta_e
348 345 345 347 348 347 346 344 342 342 340 339 340 338 337 339 340 342 347 350 352 348 341 342 344 339 334 336 340 347 347 342 343 342 339 338 338 339 347 350 346 343 343 344 348 352 352 349 346 343 342 343 348 351 353 353 352 351 352 351 347 344 341 337 336 333 333 334 333 333 336 339 341 338 332 330 330 330 330 329 329 329 329 329 329
352 347 345 346 347 346 345 345 343 342 345 343 340 339 338 339 340 344 349 349 350 352 344 336 338 338 339 342 342 346 349 344 344 347 342 336 336 337 339 342 343 342 342 343 343 344 346 345 344 343 343 342 343 349 353 354 353 354 355 355 354 353 350 345 340 336 334 334 335 335 335 337 337 335 332 331 331 330 331 330 330 331 330 330 330
357 351 346 344 345 346 346 346 344 342 345 346 344 343 342 341 341 342 348 350 348 349 348 342 338 336 338 343 341 341 346 341 339 346 344 337 335 336 338 340 339 337 338 340 339 337 338 340 342 345 348 348 343 345 351 354 354 354 355 356 357 357 356 352 344 338 334 333 335 337 339 341 340 336 333 332 330 330 331 330 330 331 331 331 331
361 356 350 345 346 348 348 349 349 346 347 349 349 350 350 347 345 341 343 350 350 348 348 346 343 338 336 340 338 335 339 337 335 339 339 336 334 333 336 339 339 336 334 336 338 338 339 341 344 348 352 353 348 346 350 353 354 354 354 355 353 352 353 351 345 338 335 332 332 333 334 335 334 332 331 331 330 330 330 330 330 330 331 330 331
362 359 355 353 352 350 349 352 353 349 349 353 353 354 354 353 350 344 341 349 353 351 347 345 343 339 336 336 336 334 334 335 335 336 336 335 332 331 331 333 335 333 331 334 337 339 340 343 345 349 353 355 352 350 351 353 354 353 352 353 350 345 342 341 338 335 333 332 331 331 331 330 330 329 329 329 329 330 331 332 333 333 332 334 337
360 361 359 358 357 354 352 352 353 350 348 353 356 355 355 356 354 350 344 346 353 355 351 343 341 338 336 335 335 334 332 334 335 335 338 339 335 332 331 332 331 330 329 332 333 334 335 336 340 344 350 352 353 352 351 350 350 348 346 345 344 342 339 336 333 333 332 331 331 331 331 330 330 330 330 331 333 333 332 334 338 340 343 347 350
359 361 361 360 358 357 355 352 353 353 351 352 356 356 354 354 355 354 351 348 350 354 354 347 339 336 336 335 334 333 332 333 334 334 336 340 339 335 333 334 335 333 331 331 333 335 336 336 338 341 343 343 342 345 348 347 343 341 339 336 335 336 338 339 339 338 336 335 335 335 335 335 334 334 335 337 339 338 338 343 348 351 351 352 354
359 361 362 361 358 356 355 353 352 355 354 352 353 356 355 353 354 355 355 353 350 352 355 352 344 336 335 335 334 333 332 332 334 334 332 335 338 335 332 334 338 339 337 334 334 338 344 345 347 348 347 344 338 335 339 345 345 342 340 337 335 335 338 341 346 347 347 347 347 343 340 338 335 335 337 342 347 349 352 354 355 355 354 354 355
360 361 362 361 357 353 354 355 354 354 355 353 352 354 356 354 354 355 356 356 354 352 353 355 352 343 335 334 335 334 333 332 333 333 332 332 333 335 332 330 333 338 340 341 340 339 341 344 348 351 351 351 347 336 330 336 341 343 344 340 337 337 338 339 343 348 350 351 349 345 343 342 341 343 347 351 355 357 357 357 356 355 355 356 356
361 362 363 360 357 355 355 356 355 353 354 353 351 352 356 356 354 355 357 358 357 354 352 354 356 352 342 335 334 334 334 334 332 332 332 331 330 333 333 331 330 333 335 338 342 342 341 341 344 346 348 351 351 341 330 329 331 333 337 338 335 336 337 339 342 346 346 345 343 344 348 350 351 354 356 358 358 358 356 356 356 356 356 357 356
362 363 364 362 360 358 357 355 355 353 352 352 350 350 354 356 355 355 357 359 356 355 354 353 355 357 354 346 337 333 333 333 333 331 331 331 330 330 331 331 330 329 329 329 332 337 341 341 342 344 345 345 342 335 329 329 330 329 330 332 331 331 333 336 340 343 344 344 344 347 351 353 355 357 358 358 358 357 356 356 356 357 357 357 357
362 363 365 365 363 360 357 355 354 352 351 350 348 346 349 354 356 356 358 360 357 354 354 354 354 356 358 357 351 342 336 333 333 332 330 330 330 330 330 331 331 329 329 328 326 328 332 337 341 346 346 345 341 336 330 328 329 329 329 329 330 330 330 331 334 336 338 340 341 343 347 350 354 356 356 357 358 357 356 356 357 357 358 358 359
362 363 365 366 364 361 358 355 353 350 349 348 346 344 346 350 354 357 358 358 356 351 349 351 354 355 356 359 359 355 348 341 334 330 331 330 329 331 331 333 336 338 336 332 328 326 326 329 333 338 342 344 343 340 334 328 328 329 329 329 329 330 330 329 330 331 331 334 334 335 338 341 345 347 348 351 354 355 356 357 357 357 358 358 358
362 363 365 366 364 362 358 356 354 350 349 348 346 345 344 345 348 353 356 355 351 348 346 348 352 353 354 357 360 360 358 353 343 332 330 331 330 331 331 333 341 348 349 344 337 330 328 327 327 328 331 333 334 334 331 329 328 328 328 329 329 329 330 331 331 331 331 333 333 333 334 337 340 342 343 346 351 354 357 357 357 359 358 357 357
363 363 364 366 365 362 360 357 354 352 350 348 347 345 343 343 345 349 356 355 350 345 347 349 349 349 349 353 359 359 359 358 353 342 332 330 330 331 332 333 338 343 348 349 343 335 330 328 326 326 327 327 327 329 330 329 329 329 328 329 329 329 329 329 330 331 333 334 335 336 337 338 342 345 348 351 354 356 357 357 357 357 356 356 356
362 363 365 365 365 362 360 357 355 353 351 348 347 345 344 344 344 348 354 359 356 349 347 348 349 349 348 349 354 358 357 357 356 349 339 333 332 333 332 332 333 334 337 340 338 334 331 329 327 326 327 327 327 327 328 330 331 330 329 330 331 332 332 332 333 335 337 339 339 339 340 343 347 350 353 354 356 356 357 356 356 356 356 356 356
362 364 365 365 364 362 360 358 355 352 350 349 347 346 345 344 344 346 351 357 360 357 351 348 349 350 350 347 348 352 355 355 352 349 345 340 336 335 334 333 332 332 332 332 332 331 329 329 328 328 327 327 327 327 328 329 330 330 331 332 333 335 335 338 342 346 349 349 349 347 346 347 350 353 355 357 358 357 357 357 357 357 356 356 356
363 364 364 363 363 361 359 357 356 352 350 349 348 347 346 346 346 345 346 353 360 361 358 355 353 352 351 348 344 346 350 352 348 345 344 343 340 339 337 336 336 335 334 332 332 331 330 329 328 328 328 327 328 328 329 329 329 330 330 331 334 335 335 338 344 352 355 355 355 355 354 355 356 358 359 359 359 359 359 358 356 355 354 355 354
363 364 364 363 363 361 359 358 355 351 349 347 347 348 347 346 347 346 345 349 356 360 361 361 359 356 353 352 349 347 347 349 347 344 343 343 343 342 342 341 341 340 337 335 333 333 332 330 329 329 328 328 329 329 329 330 329 330 332 334 336 336 337 341 348 353 357 358 359 359 359 359 360 360 361 360 360 358 357 356 353 352 353 353 350
364 364 365 365 364 362 359 357 354 351 349 348 348 349 350 350 350 348 346 350 354 358 360 361 362 360 358 357 357 353 349 348 348 345 344 343 343 344 345 345 345 344 340 337 336 336 333 331 330 329 329 328 329 330 330 331 330 331 335 339 339 339 343 348 354 357 358 359 360 360 361 361 361 361 360 359 357 357 356 354 351 350 351 350 348
365 366 365 365 365 363 358 356 353 350 350 349 350 352 351 352 352 350 350 354 357 359 359 359 360 362 361 360 361 359 355 352 349 346 344 343 344 344 346 347 347 347 344 340 339 339 339 335 331 329 328 328 329 331 332 331 331 333 336 340 342 342 345 350 355 358 359 359 359 359 360 360 359 359 359 358 357 357 356 353 350 349 349 348 344
365 365 363 363 365 365 362 358 354 353 353 351 352 352 351 354 355 353 354 357 358 359 360 360 360 361 361 361 361 361 360 356 353 350 347 344 344 345 346 348 349 349 349 346 345 344 345 343 339 333 330 329 329 330 332 333 335 338 339 341 342 342 343 347 351 355 358 359 358 358 359 358 358 359 358 358 357 355 354 353 350 346 344 341 335
365 364 362 362 365 366 363 358 355 356 355 351 349 349 350 352 355 354 355 359 361 362 362 361 360 361 362 362 362 361 361 360 358 354 351 347 346 346 347 349 350 351 351 352 351 350 351 352 351 348 344 340 337 337 338 339 341 343 344 345 344 344 345 347 350 352 355 355 355 356 356 357 358 358 357 356 355 353 352 350 346 339 333 329 327
364 364 363 362 364 364 362 357 354 356 356 349 347 349 347 348 353 354 354 358 361 363 364 362 361 361 361 362 363 362 362 362 359 355 352 350 348 348 350 351 352 354 354 355 356 357 359 359 359 358 356 352 350 348 347 346 347 348 348 348 347 347 348 348 349 351 352 353 355 356 357 358 358 357 356 355 355 353 344 335 332 330 325 324 326
365 365 363 362 362 363 362 359 355 357 358 352 347 349 349 348 351 354 355 358 361 363 365 364 362 362 362 361 362 364 364 364 363 358 354 351 351 351 354 355 356 357 357 357 358 360 362 362 361 361 360 358 357 355 351 350 350 350 350 350 349 349 350 350 351 353 354 355 357 357 358 358 356 354 354 352 348 343 333 326 326 325 324 326 327
366 365 364 363 362 363 365 363 361 361 362 357 351 349 349 350 353 355 359 361 362 363 365 366 365 364 363 363 362 364 365 366 366 364 359 355 355 357 357 358 358 359 359 358 359 359 361 361 360 361 360 360 359 358 354 352 352 352 351 351 351 351 351 352 353 354 355 357 358 358 358 356 354 354 350 341 332 329 327 326 326 325 325 327 326
367 366 366 365 364 365 366 366 365 364 365 363 359 355 353 354 357 359 361 363 364 364 364 366 366 365 365 365 364 365 366 366 367 367 365 362 360 360 359 359 360 360 359 359 359 359 360 360 360 360 359 359 359 358 357 354 353 352 352 352 352 352 353 353 354 356 358 359 360 359 357 355 354 351 341 330 328 330 328 325 324 325 327 326 326
368 369 368 366 365 366 367 367 366 366 365 365 364 362 360 359 361 361 360 360 364 366 365 364 365 366 367 367 366 366 366 367 367 368 368 366 365 363 361 361 360 360 360 360 360 360 360 360 360 359 359 359 359 358 357 355 354 354 353 352 353 353 353 355 356 357 358 360 359 358 357 356 352 341 330 331 335 333 328 324 324 326 326 325 330
369 369 367 367 366 365 367 366 366 367 366 364 365 365 364 362 363 364 361 356 358 364 366 363 362 363 366 367 368 367 367 367 367 368 368 368 367 365 364 362 361 362 361 361 362 361 360 359 360 360 360 359 358 358 357 357 356 355 354 354 354 355 356 357 357 358 358 358 358 357 357 354 344 332 331 337 337 330 325 325 325 326 325 327 333
369 367 365 365 365 364 365 365 365 367 366 364 364 366 366 364 364 367 364 356 352 359 365 365 364 363 364 366 367 367 368 368 368 368 369 369 368 367 365 362 361 362 362 362 362 362 361 360 359 360 360 359 358 358 357 357 357 357 356 355 355 356 357 358 357 358 358 357 356 354 351 344 337 335 337 338 334 329 327 325 324 325 326 329 334
365 365 364 363 364 364 364 364 365 366 367 367 365 365 365 365 365 366 367 363 357 357 362 365 366 366 366 367 368 367 368 368 370 370 370 369 369 367 365 362 360 361 362 362 362 361 361 361 360 360 360 358 358 358 357 357 357 356 356 357 356 356 357 357 357 357 356 354 353 349 342 336 336 337 336 333 329 330 330 329 328 328 327 331 334
361 362 364 363 364 364 363 364 365 366 367 368 368 366 366 365 365 366 367 367 366 363 363 364 366 367 367 367 368 369 368 368 369 370 370 369 368 366 364 362 361 361 361 361 362 362 361 360 359 360 359 359 358 358 357 357 357 356 356 357 356 356 356 356 356 356 354 351 348 342 337 333 334 334 331 327 327 330 331 331 332 330 327 330 333
362 365 366 365 365 366 366 366 367 367 367 368 370 371 370 368 367 366 366 365 366 366 365 363 362 363 364 365 366 367 368 368 368 368 368 367 366 366 364 361 361 361 360 361 361 361 361 361 360 360 359 359 358 358 358 357 358 357 357 357 356 355 354 354 354 354 352 346 341 337 334 332 330 329 328 327 328 330 331 331 332 331 329 330 331
365 367 368 366 366 368 369 368 369 370 370 369 370 371 372 370 369 369 367 365 363 362 362 361 360 360 360 361 362 364 365 366 367 366 365 364 363 363 362 361 361 361 361 361 361 361 361 360 360 360 360 359 358 359 358 358 357 357 357 356 355 352 350 351 355 356 351 343 336 333 332 331 329 330 331 331 330 329 330 332 332 330 328 327 327
366 367 367 367 366 368 369 369 370 371 370 370 369 369 370 370 369 369 369 368 365 361 360 359 358 358 359 359 359 360 361 362 363 364 363 362 361 361 362 361 361 361 361 361 361 361 360 360 361 360 360 359 359 359 358 358 358 357 356 355 353 350 349 352 356 353 345 337 332 330 330 329 328 327 329 329 329 330 332 333 332 327 324 322 324
363 363 364 365 364 365 366 366 368 368 369 368 368 368 369 369 368 368 369 369 367 365 362 359 356 356 357 357 358 358 359 359 360 360 361 361 361 361 362 362 361 361 362 362 361 361 361 361 361 360 360 360 360 359 358 358 358 357 355 352 349 348 351 354 353 344 335 329 329 329 329 327 324 324 327 328 327 328 332 331 328 323 320 318 320
356 358 359 360 361 362 364 365 365 366 366 366 366 365 366 367 366 366 368 367 367 366 365 363 361 359 358 356 357 357 358 358 358 358 359 360 361 362 362 362 362 362 362 362 362 362 361 361 361 362 361 361 361 360 358 358 357 356 352 348 347 348 350 350 344 335 329 329 329 327 327 327 323 321 328 331 329 329 331 330 327 325 323 321 321
351 353 356 358 359 359 361 362 361 361 362 362 362 362 363 364 364 365 365 365 365 364 364 364 363 362 360 358 357 357 358 357 358 358 359 360 361 362 361 362 363 363 363 363 363 362 362 362 362 362 362 361 361 360 359 358 357 356 353 351 351 351 348 341 334 328 327 329 329 325 326 328 323 319 326 331 331 329 329 328 327 329 329 328 327
349 350 353 355 355 355 356 356 355 357 358 359 360 361 361 362 362 362 363 363 362 362 363 362 361 361 360 360 358 358 359 359 358 359 359 360 361 362 362 363 364 363 363 363 362 362 363 363 362 361 361 360 360 360 359 358 357 355 354 352 350 347 339 332 328 326 325 326 327 327 328 328 323 319 323 329 330 328 327 327 326 327 328 329 329
347 347 348 350 350 350 352 352 353 354 356 356 357 358 358 360 361 361 361 362 361 362 362 361 359 359 359 358 359 360 361 361 360 360 360 361 362 361 362 363 364 363 363 362 361 361 361 360 359 360 360 358 357 357 357 355 354 353 351 347 342 337 332 329 327 325 325 327 328 327 327 327 322 319 322 327 329 328 328 328 328 327 327 327 328
345 345 345 346 347 348 350 350 351 352 353 354 356 357 358 358 360 360 361 361 361 361 360 360 359 358 357 359 360 362 362 362 361 361 361 362 363 363 362 362 362 362 362 360 359 358 357 356 355 357 358 357 355 353 351 348 347 346 343 339 335 331 328 329 328 326 328 330 330 328 326 325 322 320 324 327 328 326 326 327 327 328 328 328 328
342 344 345 345 346 347 349 348 348 349 350 351 353 355 356 357 358 358 358 358 359 359 358 358 357 358 359 361 362 362 362 362 362 362 362 361 361 361 361 362 362 362 359 357 355 355 354 351 348 348 349 348 346 345 342 338 337 337 334 331 330 328 328 329 329 328 330 331 330 328 327 325 323 324 328 329 327 325 326 328 329 328 328 328 327
340 341 342 344 345 346 346 347 348 348 348 349 350 351 352 353 354 355 355 355 355 355 355 356 357 358 360 361 361 361 361 362 362 362 362 361 359 358 357 357 357 356 355 354 351 348 347 345 342 341 340 339 337 336 335 333 332 331 330 329 328 327 328 328 327 326 328 329 329 328 328 327 325 325 327 328 327 327 328 329 328 328 327 327 327
338 340 341 342 343 343 344 345 346 347 347 347 348 348 348 348 349 349 351 352 352 352 353 353 354 355 357 358 358 358 358 359 360 360 360 359 357 355 354 353 352 352 352 350 346 343 343 343 341 339 337 335 334 333 332 330 329 329 330 329 328 326 327 326 324 324 326 329 330 329 329 327 326 326 327 328 328 328 328 327 327 327 327 327 326
335 336 337 338 340 341 342 343 344 344 344 344 344 344 344 344 344 344 345 346 348 350 350 350 351 352 353 355 355 355 354 353 354 355 355 354 351 349 348 347 346 345 345 344 342 340 340 340 339 336 333 332 332 331 329 328 327 328 329 329 327 326 327 327 326 327 328 330 330 330 328 327 327 328 329 328 328 327 328 327 326 326 326 325 325
329 331 332 333 335 338 340 341 341 342 341 340 340 341 341 341 341 341 342 343 344 346 346 346 346 347 348 349 349 347 345 345 346 346 345 345 344 344 342 340 338 336 337 337 337 336 336 335 334 332 330 329 328 328 327 326 326 326 327 327 327 326 326 326 327 328 329 329 330 330 329 328 328 328 328 327 327 327 327 327 326 326 326 325 325
326 328 330 331 332 334 336 337 338 338 339 339 339 340 340 340 340 340 341 340 341 341 341 342 342 343 344 345 343 341 339 340 341 341 338 336 336 336 335 335 333 333 332 332 332 332 331 330 328 327 325 325 325 326 325 324 323 323 325 326 326 327 328 327 327 326 326 325 326 327 327 328 328 328 327 327 327 327 326 326 325 325 325 324 324
327 328 330 330 331 332 334 335 336 337 338 339 339 339 339 339 339 339 339 338 338 338 338 338 338 338 338 339 339 338 337 337 336 334 332 332 331 330 330 329 329 329 328 328 327 327 327 326 325 324 323 323 323 323 323 322 321 321 321 322 323 324 326 326 325 323 322 321 320 321 321 322 324 324 325 325 325 326 326 326 326 325 325 324 324
329 329 329 330 331 332 334 335 336 337 337 336 336 337 337 337 337 337 336 336 336 336 335 335 334 333 333 332 332 331 331 330 329 328 327 327 327 327 326 325 324 324 324 324 324 324 323 322 322 322 322 322 321 321 321 321 321 320 320 320 319 319 320 321 320 320 319 319 318 318 318 318 320 322 323 323 323 324 325 325 325 325 325 324 324
328 328 328 329 330 331 333 333 335 335 335 334 333 333 333 333 333 332 332 332 332 332 332 332 332 331 330 329 328 327 327 327 326 326 325 325 324 324 324 324 323 323 322 322 322 322 322 322 322 323 323 323 323 322 321 321 321 321 320 320 319 319 319 319 319 318 318 318 318 318 318 318 319 321 323 323 323 324 325 325 325 325 325 324 324
326 326 326 327 328 329 330 330 330 331 331 331 330 329 328 327 326 325 325 326 327 327 327 328 328 328 328 328 327 326 326 325 325 324 324 324 324 324 324 323 323 322 322 323 323 324 324 325 325 325 325 325 325 324 323 323 322 322 322 322 321 321 321 321 320 320 320 320 320 320 320 320 320 321 322 322 323 323 323 324 324 324 324 323 323
Wind_Speed
42 44 44 43 42 40 39 38 36 35 34 34 34 33 33 32 31 29 27 25 24 25 27 27 25 24 23 22 21 20 20 20 19 20 20 19 18 16 15 15 15 14 14 14 13 12 12 12 11 11 11 11 11 10 9 10 11 10 10 11 11 11 11 11 12 13 12 11 12 13 13 13 15 17 18 19 19 21 22 23 23 24 25 26 27
42 44 44 44 44 43 41 40 38 36 34 33 34 34 33 32 32 29 27 26 26 25 27 28 27 26 24 22 22 21 21 22 21 20 21 20 19 18 18 18 17 16 15 15 15 14 13 12 11 12 12 13 13 11 10 10 11 11 11 11 12 12 13 14 14 15 16 15 15 16 16 16 17 19 20 21 22 23 24 25 26 27 28 28 29
40 43 44 45 44 43 42 41 39 38 35 34 33 33 32 32 33 32 28 26 27 27 26 27 28 28 26 24 24 24 24 24 23 21 21 22 21 20 20 19 19 19 18 18 18 16 15 13 13 13 13 13 14 13 12 12 12 12 12 12 13 13 13 15 17 18 19 18 18 18 18 18 20 21 22 24 25 26 27 28 29 30 31 32 33
38 41 44 45 44 43 42 40 38 38 36 34 33 31 30 31 32 33 31 27 26 27 28 27 28 28 28 27 27 27 26 26 25 24 23 24 23 23 22 21 21 20 19 19 19 18 16 14 14 13 13 14 15 14 13 13 13 13 14 14 15 16 16 17 19 21 21 22 21 20 21 22 23 24 25 26 28 28 30 31 31 31 32 33 34
38 39 42 43 42 43 42 40 38 39 37 34 32 31 29 28 30 32 32 28 26 26 28 29 29 30 29 29 29 29 29 28 27 25 25 24 24 24 23 22 22 22 21 20 19 19 17 16 15 14 14 15 15 15 14 14 14 14 15 15 17 18 18 18 19 21 22 24 24 24 24 25 27 27 27 28 30 30 31 32 32 33 33 31 29
39 39 39 40 41 42 42 42 40 40 38 35 32 31 30 28 28 29 30 30 27 26 28 30 31 31 30 30 30 31 30 29 29 27 25 24 24 24 23 22 22 22 22 22 21 20 19 18 17 16 16 16 16 16 15 15 15 15 15 16 17 18 19 20 21 22 23 25 27 27 28 28 29 30 29 30 31 32 33 32 30 28 26 23 21
39 39 38 39 41 42 43 43 42 40 39 36 32 31 31 29 28 28 28 29 28 27 27 29 31 32 31 31 31 31 30 29 29 28 27 25 24 24 23 22 22 22 22 22 21 20 19 19 18 18 18 18 18 18 17 16 16 17 17 17 18 19 20 20 21 22 24 26 27 28 28 29 30 31 30 30 31 31 31 28 24 22 20 19 19
40 39 39 39 41 43 43 43 42 40 38 38 34 32 31 31 29 28 28 29 29 28 27 27 29 31 31 31 31 30 30 29 29 30 29 27 26 26 25 23 22 22 22 22 21 21 19 18 18 18 18 19 19 18 18 18 18 18 18 19 20 20 20 20 20 21 23 24 24 26 28 30 32 32 32 30 27 24 21 20 21 21 20 20 20
40 40 39 41 43 44 44 42 41 40 39 39 37 34 32 32 31 29 28 28 28 28 28 26 27 30 31 31 31 31 31 30 30 30 30 29 28 27 27 26 25 24 23 22 22 22 21 20 19 19 19 19 20 20 19 19 19 19 19 20 21 22 22 22 21 21 22 23 24 26 28 29 30 29 27 24 21 18 17 19 21 21 20 20 21
40 40 41 43 44 44 43 42 41 41 40 40 39 37 33 32 31 31 30 29 28 29 28 27 26 28 30 31 31 32 32 31 32 31 30 30 29 28 28 28 27 26 26 25 23 22 22 22 20 20 21 21 23 23 22 21 21 21 21 22 23 24 24 23 22 23 24 25 27 27 26 26 25 23 21 19 19 19 20 21 21 20 21 23 24
40 41 41 42 43 43 43 43 42 42 42 41 41 40 36 33 32 33 32 30 30 29 29 29 27 26 27 29 31 32 33 33 32 32 30 30 29 28 28 28 29 29 28 29 28 26 24 23 22 22 23 24 26 27 26 24 23 23 23 23 25 26 27 26 25 24 25 27 28 27 26 25 23 21 21 19 18 19 20 21 21 23 24 24 26
39 39 39 39 42 44 45 44 44 44 44 44 43 42 40 36 34 34 34 32 32 32 31 30 30 27 26 26 29 31 33 34 33 32 30 29 28 28 28 28 29 29 30 30 30 29 28 26 24 23 23 25 26 27 27 26 25 24 24 25 26 28 29 29 28 28 28 29 31 31 29 28 25 24 23 20 18 19 21 22 23 24 25 25 26
37 38 37 38 41 44 45 45 46 46 46 46 45 44 42 40 38 37 36 35 36 35 34 32 31 30 27 26 26 28 29 32 34 33 31 30 29 28 28 28 27 28 29 30 30 30 30 29 28 26 25 25 26 28 29 28 26 26 26 26 28 29 30 31 31 31 31 32 34 35 34 32 31 30 29 26 24 22 23 24 24 23 25 28 29
36 38 37 37 40 43 44 45 46 46 46 46 45 45 45 44 43 40 38 38 39 38 36 35 33 33 32 28 26 26 26 28 32 33 32 30 29 28 29 29 27 25 25 27 29 31 31 31 31 31 30 29 29 30 32 31 30 29 28 28 29 30 30 31 31 31 32 33 35 37 36 34 33 33 33 31 27 24 24 25 24 24 28 31 33
35 37 37 38 40 43 44 45 45 45 46 46 46 46 45 45 45 42 38 38 40 40 37 36 36 36 35 32 29 27 27 27 30 32 32 31 30 30 30 31 30 29 27 28 30 32 33 33 33 33 32 32 31 31 32 32 31 31 31 31 31 31 32 32 31 31 30 31 33 34 35 34 32 31 28 25 23 23 24 25 26 29 31 30 29
35 37 38 39 41 43 44 44 45 45 45 46 46 46 45 44 45 43 38 34 36 39 39 37 37 37 37 36 33 30 29 29 31 33 33 32 31 31 32 33 34 34 33 33 34 34 35 35 35 35 34 33 32 32 32 32 32 32 32 32 31 31 32 32 31 30 29 28 28 30 31 30 29 26 23 21 22 24 26 27 29 31 29 24 22
37 38 40 40 41 43 44 44 44 44 45 45 45 46 45 45 44 44 42 36 32 35 38 38 37 37 37 38 37 35 32 32 34 36 36 35 33 31 32 34 35 37 37 37 37 37 37 37 36 36 36 35 34 33 32 32 32 33 33 32 31 31 31 30 28 27 27 25 25 25 26 25 24 24 23 23 24 24 26 29 29 26 24 21 19
39 40 42 42 42 43 43 43 44 44 44 44 45 45 45 45 45 45 44 40 32 30 32 34 36 36 37 38 39 37 35 35 37 38 37 37 35 33 32 33 35 36 37 37 38 39 39 39 38 38 38 37 36 35 34 33 33 34 34 33 32 31 31 30 27 23 22 23 22 22 22 21 22 24 25 25 25 25 27 27 24 21 20 18 20
41 42 43 41 41 42 42 42 43 43 42 43 43 44 44 44 44 44 44 42 35 29 28 29 31 34 35 36 37 37 36 36 38 38 38 37 35 33 33 34 35 36 36 37 38 39 40 40 39 40 39 38 37 36 35 34 34 35 35 33 32 31 30 28 25 21 19 19 18 18 20 22 23 24 26 26 25 24 22 20 19 20 19 17 19
41 40 40 38 38 39 40 40 42 41 41 41 42 42 42 41 41 41 42 40 35 31 28 27 27 29 31 31 32 34 36 36 36 37 37 36 35 34 33 34 35 35 35 36 37 38 39 40 40 40 40 39 38 37 36 35 35 36 34 31 30 29 27 24 20 19 19 19 17 17 20 22 22 23 25 23 19 17 17 16 18 19 17 15 18
38 37 37 37 36 37 38 38 39 39 39 39 39 39 39 38 38 39 38 35 33 31 30 28 27 27 27 27 27 30 32 34 36 37 37 36 35 33 33 34 35 34 35 35 36 37 38 39 40 40 40 39 38 38 37 36 36 36 35 32 30 29 27 24 21 21 22 21 19 18 20 23 23 22 21 17 14 15 16 14 13 12 12 15 19
36 37 38 37 35 35 35 35 36 36 37 38 38 38 38 36 35 36 35 32 31 31 30 29 27 25 25 26 26 27 29 31 34 36 36 36 35 34 34 34 34 34 34 34 35 36 36 37 38 39 39 39 38 38 37 35 34 34 34 32 30 30 30 28 26 26 25 23 21 20 21 24 22 18 14 12 12 14 13 10 11 14 16 18 20
36 37 37 36 34 33 33 34 34 34 36 37 37 37 37 35 33 34 33 30 28 29 29 29 28 25 24 25 26 27 29 30 32 34 35 35 35 34 33 33 33 33 33 33 34 35 34 33 34 35 36 37 37 36 34 31 31 32 31 29 29 30 29 28 28 28 28 26 26 24 24 23 19 14 11 10 13 17 17 18 20 21 20 18 18
35 36 35 34 33 32 32 33 33 33 34 36 35 34 35 34 33 33 33 31 28 27 27 29 29 27 26 25 24 25 27 29 32 35 36 35 35 33 31 30 30 31 32 32 31 28 26 26 27 28 30 31 32 32 30 27 27 28 27 26 27 27 28 28 28 28 28 27 27 25 22 18 14 11 12 15 19 22 21 18 18 19 18 16 13
34 34 33 32 32 31 30 31 31 31 32 34 34 33 33 33 33 32 32 30 29 27 26 27 28 28 27 25 24 24 24 26 29 32 34 33 32 31 29 28 28 29 30 30 28 25 24 24 24 24 25 26 26 26 26 26 26 26 26 26 26 26 27 27 26 26 26 25 23 21 17 12 9 12 16 18 19 21 19 15 15 16 17 14 12
32 31 30 30 30 28 27 28 29 29 30 31 32 33 33 32 32 32 30 29 29 28 26 25 26 26 26 25 24 23 23 24 25 28 30 29 28 27 27 25 25 26 26 27 28 29 29 27 26 26 26 26 26 26 25 26 25 25 26 26 25 25 26 26 25 25 23 20 18 14 10 9 12 17 18 15 14 17 16 13 14 15 14 11 11
29 28 26 26 27 26 25 25 26 27 27 27 27 29 30 29 29 30 29 28 27 27 27 25 24 24 25 24 24 23 23 24 25 26 28 28 25 25 25 25 25 26 27 27 28 28 29 29 30 30 29 28 29 29 28 28 27 26 27 27 26 25 24 24 24 22 19 17 15 13 12 15 18 20 18 14 13 14 13 13 13 12 10 10 11
25 24 24 24 25 25 24 24 24 24 25 25 23 24 26 26 26 29 31 29 27 27 27 27 26 25 24 23 23 24 24 24 25 25 27 27 24 24 25 26 26 28 29 28 27 27 28 30 31 32 31 32 33 31 28 26 26 27 27 27 27 25 23 22 22 21 21 20 19 19 21 22 21 18 13 11 11 12 12 13 12 10 9 10 8
23 22 22 22 23 24 23 23 23 22 23 23 22 22 24 25 25 26 28 29 27 26 26 27 27 26 24 23 24 23 24 24 25 25 26 26 24 23 23 23 23 25 26 26 26 27 28 29 30 31 32 32 29 26 22 19 19 21 22 23 23 21 20 20 20 21 23 25 23 23 23 21 18 14 9 9 12 14 14 13 10 9 9 8 5
22 22 21 20 21 23 23 23 23 22 21 22 23 23 24 25 25 24 25 27 27 27 27 26 25 25 25 24 23 22 23 23 23 23 24 25 25 23 21 18 17 18 19 21 24 27 28 29 30 29 27 24 22 20 19 18 18 17 17 20 21 20 19 19 19 20 22 21 19 18 18 15 12 9 8 9 11 13 14 13 10 8 8 6 4
22 20 20 20 21 23 23 22 23 23 21 21 23 25 25 26 26 26 26 27 27 28 28 27 26 26 25 23 22 23 23 23 21 21 21 22 23 21 19 18 17 16 17 20 24 28 28 27 27 25 22 20 20 19 19 20 20 18 17 17 19 20 21 20 19 19 20 18 15 15 13 11 10 10 10 10 10 9 10 10 8 7 7 6 5
21 19 19 21 22 22 21 20 21 23 22 20 21 23 25 27 28 28 28 27 27 27 27 28 28 28 26 25 24 24 24 24 23 22 21 20 21 19 17 18 18 18 18 20 25 28 28 24 22 21 20 20 20 21 21 21 20 18 17 16 17 18 19 18 19 20 19 16 14 14 13 13 13 12 12 11 9 6 6 6 5 6 7 6 5
17 17 18 21 22 21 19 19 19 21 21 20 19 19 20 22 24 26 29 29 28 27 27 27 28 27 27 27 27 26 25 24 23 23 23 22 22 21 19 19 19 20 21 22 25 29 28 23 20 19 19 20 21 22 22 22 20 17 16 18 21 20 17 18 23 24 19 15 14 14 15 15 14 12 10 8 6 6 5 3 3 5 5 4 4
18 18 18 20 21 19 18 17 18 18 19 19 19 18 17 17 17 19 24 28 30 31 31 30 29 28 28 28 28 29 28 26 25 24 23 22 21 21 21 21 21 21 23 23 25 28 27 23 21 20 19 20 21 22 22 22 21 19 19 24 26 20 16 20 25 24 21 20 19 17 16 15 12 10 8 6 6 5 3 1 2 3 3 2 3
18 18 17 17 19 18 17 15 15 15 16 16 17 17 16 16 16 16 17 20 23 26 27 28 30 30 30 29 28 29 29 29 29 29 28 26 23 21 21 23 24 25 25 26 27 28 26 22 21 23 23 21 22 23 24 23 22 23 27 30 25 18 16 21 23 22 24 25 22 19 18 17 13 11 9 8 7 5 3 3 2 3 3 2 3
11 13 14 14 14 14 14 13 12 12 13 13 13 14 14 14 15 16 15 15 13 13 17 22 24 24 26 28 28 28 29 29 29 30 30 29 26 23 23 25 27 28 28 28 28 29 28 24 22 24 26 27 27 28 28 27 26 25 24 22 19 18 21 23 23 25 26 24 20 19 19 16 13 10 8 7 7 6 5 5 5 5 4 2 2
10 14 15 14 12 12 13 15 15 14 12 11 11 12 12 12 13 13 13 13 11 10 13 18 17 15 18 22 25 27 28 28 28 28 28 28 26 25 25 25 27 29 30 29 29 30 29 25 24 26 29 31 33 34 33 32 30 27 22 17 18 23 25 24 25 27 25 21 19 20 17 13 12 11 9 6 5 5 5 5 5 6 7 7 5
5 8 13 14 13 11 10 11 12 13 11 8 8 9 9 10 11 11 10 11 11 10 12 14 12 11 15 18 19 22 24 25 25 26 27 28 28 27 25 24 24 26 28 29 30 31 27 24 25 28 32 34 35 35 35 33 32 32 29 26 24 24 24 23 25 25 22 19 18 17 14 12 12 12 11 8 6 6 6 6 6 5 7 8 6
9 2 9 11 10 10 9 7 7 7 8 7 6 6 6 7 8 8 9 10 10 10 9 7 7 11 16 17 15 17 19 21 23 25 27 28 28 27 27 26 25 25 23 22 24 25 24 24 27 31 33 35 35 35 35 34 33 34 34 32 27 25 24 24 25 23 20 18 16 14 13 12 12 12 11 9 6 6 6 6 5 5 5 5 5
12 8 5 6 6 7 7 7 9 9 5 4 5 5 6 6 7 7 9 10 10 10 10 10 12 16 16 14 12 13 15 18 21 23 25 26 26 26 27 26 24 23 20 19 21 21 19 22 29 33 34 34 33 34 34 33 32 34 33 29 25 24 22 21 21 20 17 15 14 14 13 12 11 12 11 8 7 7 7 6 6 6 6 5 6
10 11 8 6 7 7 6 5 6 8 6 2 3 4 4 4 6 7 7 8 10 12 16 18 19 18 13 10 9 10 12 16 19 20 21 23 24 26 27 26 25 24 21 20 23 23 20 21 25 28 29 30 31 32 31 27 27 30 28 22 20 19 17 15 15 15 13 13 13 13 12 12 11 9 8 8 8 8 7 6 6 7 7 7 7
9 9 9 11 11 9 7 6 5 4 5 2 2 5 5 4 6 8 8 9 12 15 17 18 17 14 10 8 8 9 9 11 14 16 19 21 22 24 26 27 28 28 25 23 22 23 22 20 18 16 17 21 23 23 22 21 22 24 21 17 17 17 15 12 12 12 12 11 11 11 10 10 9 8 7 7 8 7 6 7 7 7 8 9 9
11 9 9 11 11 7 5 7 8 5 6 5 5 7 7 6 7 10 11 12 13 14 14 14 13 11 9 9 11 11 11 11 13 16 20 23 23 22 22 21 22 25 26 24 20 17 16 17 16 14 15 17 16 14 13 13 16 16 13 13 16 18 15 13 14 14 12 9 8 8 8 7 8 8 7 7 6 5 6 8 9 9 9 10 10
12 11 10 9 7 4 5 4 4 3 3 5 6 8 8 7 8 10 11 11 11 11 11 10 9 8 9 10 11 12 12 12 13 16 19 20 20 20 19 19 20 22 24 23 20 17 17 20 22 20 19 20 21 21 19 18 19 18 13 10 13 14 12 11 11 11 10 8 8 8 8 7 6 5 5 6 7 8 9 10 11 11 12 12 12
9 9 8 5 3 6 8 7 3 1 1 2 4 7 8 7 8 8 8 8 8 8 8 7 7 8 9 9 9 9 10 10 12 14 16 17 17 18 19 19 19 20 20 21 20 20 20 22 23 21 19 20 22 22 21 21 23 23 19 16 16 16 15 14 14 12 10 8 7 6 6 6 6 6 5 7 9 10 11 11 12 13 13 13 13
7 6 5 3 2 5 6 5 4 5 4 2 3 4 4 4 5 5 4 4 5 5 5 5 7 8 8 8 7 7 8 10 11 11 11 13 15 16 17 17 16 15 16 18 19 19 19 21 21 20 20 21 22 21 20 20 21 21 20 19 19 20 21 21 22 20 16 13 11 9 6 6 8 8 9 11 12 11 12 13 14 14 13 13 14
9 9 8 7 3 2 3 2 3 4 4 4 4 3 2 2 2 3 2 3 4 4 5 6 7 8 9 9 9 10 11 12 13 13 13 14 14 15 17 18 17 16 16 19 20 20 20 20 18 17 17 19 19 18 18 17 16 16 17 17 18 20 21 22 22 21 17 14 13 12 10 10 10 8 9 11 12 13 13 15 15 15 14 15 16
8 8 8 7 6 4 2 1 1 2 2 2 2 1 1 1 2 3 4 5 7 7 7 8 8 8 8 9 9 10 10 10 11 12 13 12 12 13 14 15 14 13 13 15 17 17 16 15 13 12 12 14 14 13 13 12 11 11 12 13 15 17 19 19 19 18 16 14 13 12 12 13 13 12 12 12 13 14 15 16 16 16 16 17 18
8 7 6 6 5 4 4 2 1 1 1 1 2 3 3 4 4 4 5 7 8 9 9 10 10 10 10 9 9 8 8 8 8 9 9 9 9 9 10 11 11 10 11 11 11 11 11 11 11 11 11 11 11 10 9 9 9 10 11 14 16 18 18 19 19 18 18 17 17 16 15 15 14 14 14 15 16 16 17 17 17 18 19 19 19
7 6 6 5 5 4 2 1 1 1 2 2 4 5 5 5 5 5 6 7 8 9 10 11 12 12 12 12 12 12 11 11 12 13 13 13 13 14 13 13 13 12 11 11 11 11 10 10 10 10 9 9 10 11 12 13 14 14 15 17 18 18 18 18 18 18 18 19 19 19 20 20 19 16 15 16 17 18 18 18 18 18 19 19 19
7 6 5 5 5 4 2 1 1 2 3 3 4 5 6 7 8 8 8 8 9 9 10 11 12 13 14 14 14 15 15 16 17 18 18 17 17 17 16 16 15 13 13 13 13 13 12 12 11 10 10 10 10 10 10 10 10 10 10 12 13 13 13 14 14 15 16 18 19 20 20 21 22 22 22 22 22 22 22 22 22 22 21 19 18
Wind_Direction
212 215 215 215 215 217 219 221 220 218 218 218 219 221 222 222 224 223 220 218 217 220 224 222 223 230 232 232 229 225 228 230 227 228 232 233 235 234 231 234 240 240 240 242 241 238 240 243 248 251 252 253 251 248 245 250 256 255 252 255 262 271 276 276 281 287 283 279 280 280 277 273 272 275 280 284 286 287 288 286 286 286 287 289 290
209 214 215 214 216 218 219 220 220 218 216 218 220 221 222 222 221 220 218 218 217 217 224 226 225 227 228 227 227 223 224 230 226 223 231 237 239 240 238 236 238 240 241 242 242 243 245 247 248 250 251 251 252 249 243 244 252 254 252 253 255 257 265 275 281 287 291 292 292 291 291 288 286 286 290 293 295 295 294 295 296 297 298 298 299
204 212 215 215 216 216 217 218 219 218 215 217 220 220 220 221 222 221 217 217 220 219 222 226 227 228 226 224 226 225 225 231 230 224 230 238 241 242 241 241 243 244 244 245 249 252 252 250 249 248 246 248 251 249 243 240 243 247 248 250 252 250 254 266 277 285 290 292 291 290 291 289 288 290 292 295 297 297 297 299 301 303 305 306 306
197 206 213 214 214 214 214 214 214 216 214 214 216 215 215 218 221 223 220 214 217 221 222 224 227 228 226 224 227 229 229 233 234 231 232 238 242 244 242 240 242 246 247 247 250 254 255 251 248 245 240 243 250 251 245 243 242 244 247 248 253 256 255 261 274 285 290 293 293 291 291 289 289 291 293 294 296 297 298 301 303 304 304 305 306
193 202 209 209 209 212 213 210 210 214 214 210 211 210 208 211 216 222 222 213 211 218 223 224 226 228 227 224 227 230 231 233 235 234 235 239 242 245 246 244 243 246 248 247 249 252 253 251 249 246 239 239 247 250 247 246 246 247 251 252 258 267 270 273 278 284 288 291 293 293 293 292 293 295 296 297 298 299 300 302 303 304 304 303 302
192 197 201 202 203 208 210 209 209 214 214 209 206 207 205 205 210 217 220 215 208 211 221 225 227 228 227 225 226 231 232 234 235 235 235 237 241 243 245 247 247 247 247 248 250 253 255 254 250 247 243 240 243 248 250 249 250 253 256 259 265 270 275 279 283 285 286 288 291 293 294 295 296 298 300 301 302 303 304 305 305 306 306 303 301
192 194 196 197 200 204 207 210 209 210 213 209 204 204 205 204 206 211 215 215 209 206 215 224 227 228 228 226 226 230 233 234 235 235 233 234 238 242 243 245 247 248 248 248 250 252 255 257 255 251 249 249 248 249 251 253 257 261 265 270 274 275 274 276 280 283 285 288 289 292 294 296 298 299 300 301 302 302 305 306 304 302 302 300 299
191 193 194 196 200 204 207 209 209 207 209 210 204 203 205 205 205 207 210 212 210 207 209 218 226 229 229 228 227 230 233 234 235 236 235 233 236 241 244 245 244 246 248 248 248 248 247 249 252 252 251 253 254 254 253 254 257 263 269 273 276 276 275 273 273 274 278 281 284 288 291 293 295 298 300 301 301 302 302 300 296 296 298 299 298
191 191 193 197 204 208 207 206 207 206 208 209 205 202 203 205 204 205 208 209 209 208 207 211 220 228 230 229 228 229 232 234 235 236 236 235 235 238 245 248 246 244 246 247 247 247 246 245 244 246 249 252 256 259 259 258 259 262 266 270 274 274 274 273 271 270 271 274 278 284 287 290 293 297 299 299 298 296 296 296 295 295 296 296 295
191 191 194 200 206 207 205 204 206 206 207 209 207 203 201 203 203 204 207 208 208 209 208 207 213 222 228 230 229 229 231 234 236 237 236 237 236 237 242 249 250 247 245 246 246 246 248 249 247 245 245 247 252 259 264 265 266 265 264 266 269 271 271 272 271 270 273 276 280 283 283 284 287 288 287 288 291 295 299 299 297 296 297 297 299
192 193 194 198 203 205 205 205 206 206 207 209 209 206 202 201 204 205 206 208 210 209 208 207 209 215 222 227 229 230 232 235 238 239 238 238 238 239 242 247 251 251 250 249 250 249 249 250 251 250 249 250 254 261 267 268 267 267 267 266 267 269 269 268 268 269 272 276 279 280 278 280 282 281 283 287 289 292 294 294 293 296 300 302 304
194 194 193 194 198 205 207 207 207 209 209 211 212 210 205 202 204 205 205 207 211 213 211 210 209 211 215 220 225 229 233 236 239 241 240 239 239 241 243 245 248 251 252 252 253 254 253 251 250 249 251 255 260 265 268 268 266 266 268 268 268 269 269 268 267 267 269 271 274 275 274 275 277 278 282 286 287 288 288 289 294 298 301 302 301
194 194 193 193 198 205 208 207 209 211 212 213 216 215 210 206 206 206 206 209 215 219 220 217 214 212 213 215 219 224 229 234 239 242 242 241 240 240 241 242 242 245 249 252 254 255 255 255 252 250 251 254 260 264 268 270 270 269 269 269 268 268 269 269 269 269 270 270 272 274 275 275 276 279 282 283 285 289 290 292 297 298 297 297 296
193 193 193 194 199 205 207 208 210 212 212 213 215 216 215 213 211 211 211 214 220 223 225 223 222 220 217 215 217 220 224 230 238 242 242 241 240 239 237 237 236 236 240 246 251 254 256 256 256 256 256 257 259 263 268 271 273 273 272 271 270 270 270 269 269 270 271 270 272 277 279 278 277 279 283 285 287 290 292 294 296 294 292 293 295
193 192 192 194 200 205 207 209 211 212 213 214 215 217 217 216 216 214 212 215 222 226 226 225 227 228 226 221 218 220 223 227 236 242 243 240 238 237 236 234 233 232 233 238 245 252 255 257 258 259 259 260 261 263 266 268 271 274 275 274 274 274 273 273 273 272 270 270 273 277 280 281 280 280 281 282 283 286 289 291 291 292 292 293 297
192 192 191 194 200 206 208 210 211 213 214 215 216 217 217 217 217 216 213 213 220 226 228 227 228 231 232 229 224 223 225 227 233 240 244 242 238 236 236 234 234 234 235 237 242 248 252 255 258 260 261 262 262 263 265 266 267 270 272 273 275 276 277 278 280 279 277 275 275 277 279 280 280 280 279 277 278 284 290 292 293 295 297 298 302
193 192 193 196 202 207 209 211 212 214 215 216 216 217 217 218 218 218 216 213 214 222 227 229 229 230 232 233 232 230 229 232 236 240 244 245 243 240 239 237 237 237 237 239 243 247 251 253 256 259 261 263 263 264 264 264 265 266 268 270 271 272 274 276 277 279 282 283 282 282 285 284 282 283 284 284 286 292 295 294 296 300 300 301 305
192 194 196 200 204 208 211 212 214 216 217 217 217 218 218 218 219 220 220 217 213 216 222 226 228 229 232 235 237 236 235 237 241 243 246 248 249 247 245 243 243 241 240 241 243 246 250 253 255 257 260 262 264 264 264 264 264 265 267 268 269 270 271 271 270 270 274 280 284 289 292 291 288 287 287 288 291 293 292 293 299 303 299 298 302
193 197 200 201 204 209 211 213 215 218 218 218 218 218 218 219 219 221 223 221 216 213 216 221 224 228 232 235 238 240 239 239 243 246 247 249 250 249 248 247 247 246 245 244 245 247 250 252 255 257 259 261 262 263 264 264 264 265 266 267 267 268 269 270 270 267 266 270 278 285 287 287 287 285 284 285 288 290 291 298 308 307 300 296 299
193 196 198 197 201 208 211 214 217 219 220 219 218 218 218 218 219 221 223 222 219 216 216 219 221 225 229 230 232 239 241 241 243 246 249 249 249 248 247 247 247 247 248 248 248 250 252 253 255 257 259 260 261 262 263 264 265 265 265 264 265 265 264 264 265 263 260 257 257 262 268 274 278 281 285 291 298 298 297 304 310 305 297 292 292
190 192 196 196 199 206 211 214 217 219 220 220 217 216 217 216 217 220 222 220 219 218 218 220 222 223 226 225 224 231 239 242 243 246 249 250 249 247 246 246 246 247 249 250 250 251 253 255 257 258 260 261 261 261 262 263 264 265 264 262 261 259 256 253 249 248 251 254 255 254 258 265 271 276 282 293 305 302 298 304 310 299 279 278 287
187 192 199 198 197 201 206 212 215 216 217 219 216 215 216 214 215 219 220 217 217 218 217 218 220 222 224 224 223 225 233 240 243 245 247 249 249 248 246 246 247 247 248 250 251 251 253 255 258 260 261 262 262 262 263 263 263 263 262 260 257 254 253 250 246 244 246 251 256 257 259 265 271 277 280 283 285 282 274 266 272 275 273 279 288
189 194 199 198 194 197 203 209 212 211 213 217 217 215 216 214 213 218 219 214 212 215 216 216 218 219 221 223 224 226 229 234 241 245 247 249 250 249 247 247 247 247 247 248 251 252 253 254 256 259 261 262 264 264 265 264 260 258 257 255 252 252 252 250 248 248 248 251 257 260 262 268 275 281 283 272 262 259 254 250 258 270 282 290 295
190 194 197 195 193 195 202 209 210 208 212 217 216 214 216 215 213 216 218 214 210 210 214 217 219 219 220 221 223 227 228 231 238 244 247 249 251 251 249 247 245 245 245 245 246 250 252 252 252 255 258 262 263 264 264 259 252 251 251 250 247 247 248 249 250 251 252 255 257 260 265 275 282 275 262 252 248 254 263 268 268 277 295 309 316
188 192 194 194 195 194 198 206 209 206 209 214 213 210 212 213 211 213 214 213 211 209 211 216 219 220 221 222 222 224 225 227 235 244 249 251 252 252 250 246 243 242 243 242 240 238 239 242 246 249 254 259 261 260 257 250 245 245 246 246 245 244 246 248 250 252 255 256 257 263 271 278 273 258 254 253 252 258 271 284 289 300 319 331 335
187 190 190 190 192 190 190 197 203 201 202 209 212 210 209 209 209 210 209 208 209 209 209 212 216 218 220 222 221 222 224 224 230 242 250 252 250 247 245 243 241 240 241 240 238 235 234 235 238 241 245 250 254 256 253 246 243 243 244 245 245 244 245 248 249 252 254 255 257 266 271 254 244 252 261 268 268 269 281 301 316 325 335 335 331
185 185 183 182 184 184 183 189 194 195 196 201 206 207 208 207 206 207 206 204 206 210 210 210 213 217 218 220 221 221 223 224 226 235 245 249 246 242 239 237 236 235 236 236 235 237 238 236 235 236 239 242 247 252 252 247 243 243 244 245 244 244 246 248 249 250 250 247 242 237 235 237 245 255 269 280 280 281 296 317 327 329 327 323 328
180 177 176 177 178 180 182 188 190 191 192 194 196 200 202 203 204 208 210 208 205 207 211 212 213 215 216 218 219 220 222 225 225 229 239 245 246 243 239 235 232 232 233 233 233 234 237 237 236 235 235 238 244 249 250 247 245 243 243 245 245 244 243 244 245 246 244 240 234 231 235 244 252 261 271 273 271 281 301 316 322 320 317 326 336
175 173 172 174 177 179 183 187 189 189 191 191 192 196 199 199 202 208 215 217 212 209 213 217 217 218 219 219 220 219 222 227 229 229 235 241 245 244 240 236 236 236 236 237 235 233 233 236 237 236 235 237 241 245 244 242 242 242 241 241 241 240 238 239 243 246 247 245 244 245 246 248 254 262 259 247 261 284 302 311 312 312 318 333 343
169 171 173 174 179 182 184 187 188 188 190 191 192 196 200 201 202 204 213 221 218 211 212 217 219 220 221 222 224 224 225 230 232 231 231 234 239 243 245 244 243 239 233 230 231 231 231 233 236 237 235 234 235 236 236 234 236 238 238 237 238 235 231 231 235 241 248 249 246 246 248 245 245 245 228 228 260 288 301 306 310 317 327 343 339
169 171 172 176 183 185 184 187 187 186 187 189 193 198 201 202 204 205 210 219 222 217 212 213 215 217 218 219 223 226 227 228 228 228 229 232 235 241 248 248 243 236 227 220 222 226 227 229 233 234 232 230 230 229 228 229 232 234 232 234 237 233 228 229 229 230 237 240 236 234 237 234 226 219 224 242 263 276 285 299 316 327 331 339 330
172 170 171 179 185 185 183 185 187 187 186 186 192 200 204 206 208 211 212 218 224 225 222 218 217 218 218 217 218 223 225 225 225 225 226 230 234 238 244 245 241 236 227 219 220 223 223 224 228 229 227 227 227 226 225 225 228 231 229 228 232 233 230 228 224 222 226 231 229 225 224 222 221 226 240 260 265 253 258 280 303 317 327 339 333
167 167 175 182 181 177 178 182 184 186 187 187 188 195 202 206 211 216 219 221 224 228 232 232 230 229 227 223 222 224 227 227 228 227 227 229 233 235 238 240 239 236 229 224 223 224 222 222 225 227 226 225 224 224 224 222 222 227 227 224 227 231 230 223 222 226 228 220 210 213 221 226 232 239 248 255 245 231 244 272 293 311 328 337 322
165 170 179 184 179 174 176 180 181 182 186 191 192 193 199 206 210 217 224 228 230 232 236 240 241 240 239 234 230 228 229 230 231 232 234 235 234 233 234 234 234 233 231 229 229 227 224 222 223 224 225 226 225 224 223 220 220 223 222 223 226 227 224 225 227 230 228 217 209 213 224 227 229 229 224 218 220 225 226 226 267 290 301 309 313
164 168 171 176 178 179 179 180 183 188 191 194 195 196 201 207 211 214 220 227 232 236 240 242 244 245 246 245 242 238 236 235 235 237 241 242 237 232 231 230 228 229 231 231 231 231 228 224 223 223 224 226 224 222 221 221 221 220 221 226 229 225 224 230 228 221 219 218 215 216 221 223 223 221 213 208 210 206 180 177 227 260 261 268 291
143 153 158 165 170 173 175 177 180 189 196 197 196 198 200 206 212 216 216 218 224 231 240 245 246 245 245 246 247 245 242 240 238 238 240 240 236 231 229 227 227 230 234 234 234 233 231 227 224 223 224 227 227 225 224 226 224 220 220 224 225 224 227 227 218 214 216 216 214 217 221 222 222 217 209 212 213 195 175 187 212 231 246 280 313
141 151 154 157 157 160 173 180 178 180 188 194 195 198 199 204 211 213 213 216 213 211 230 245 250 247 243 243 243 242 242 240 237 235 235 234 231 226 225 226 228 232 236 236 236 235 233 229 227 225 226 229 231 231 231 230 225 219 216 218 223 230 230 220 211 216 219 214 215 223 223 216 215 206 189 190 200 185 183 204 220 244 277 310 341
109 152 151 144 136 138 159 177 178 180 191 204 205 202 200 205 213 213 211 215 212 211 229 248 255 252 249 247 243 240 239 235 231 229 228 227 224 220 217 219 225 233 237 237 236 234 232 229 229 229 230 232 234 236 239 237 230 226 229 235 235 231 225 215 213 219 217 211 218 225 213 203 210 202 180 177 188 187 196 209 214 237 275 301 322
45 118 167 154 134 127 133 133 134 158 194 217 218 210 207 208 212 215 217 217 215 211 217 230 238 239 245 249 247 240 234 229 226 225 224 224 222 218 214 213 218 226 233 234 232 231 229 231 232 232 231 233 236 237 237 236 232 231 234 235 230 220 214 214 219 220 214 211 218 216 200 196 203 194 179 178 189 198 209 219 217 223 245 267 274
42 53 128 150 127 114 114 105 102 115 152 217 226 225 231 227 221 222 219 215 212 207 204 213 226 234 241 250 251 239 228 224 224 223 222 220 217 214 211 211 215 222 227 228 227 224 222 226 232 234 234 236 237 236 233 232 232 231 228 224 218 212 210 214 220 218 210 206 207 200 192 192 196 190 183 180 188 202 213 224 233 238 245 256 264
43 47 66 85 83 76 70 70 96 119 130 156 215 215 213 214 217 219 213 210 217 219 218 222 232 239 245 254 251 237 229 228 228 225 222 220 217 214 211 210 213 217 218 221 227 228 225 228 237 243 244 241 235 230 226 222 218 215 211 207 207 209 208 212 219 214 199 192 194 193 192 194 192 186 183 189 201 211 218 227 241 252 259 267 271
46 48 58 62 62 62 60 50 57 117 138 130 232 229 216 208 213 209 199 198 210 216 218 223 233 243 247 241 234 230 229 231 229 223 217 214 213 215 216 218 221 221 219 220 228 235 235 231 232 235 233 227 221 218 217 212 204 201 200 201 204 203 194 192 197 192 184 186 190 187 187 192 190 183 188 207 218 223 233 244 252 259 264 266 266
40 43 56 63 60 58 72 65 59 89 150 166 210 228 228 231 229 221 214 213 217 223 229 235 242 244 233 218 215 218 222 223 221 218 215 213 213 215 219 221 222 223 223 224 226 227 223 214 206 198 192 187 182 185 194 196 190 186 186 190 192 187 181 183 190 187 182 187 192 186 183 189 193 193 202 219 233 242 249 254 258 263 267 267 266
50 48 51 64 77 118 166 141 73 69 163 205 232 237 234 239 241 237 236 239 242 244 244 243 242 238 230 221 217 218 221 225 227 224 222 221 220 216 214 214 215 219 223 221 213 206 203 204 203 197 184 172 169 172 172 170 171 172 170 172 177 178 178 188 197 197 190 186 190 191 189 195 211 228 231 237 249 257 258 258 262 265 266 269 271
61 69 68 75 122 165 180 188 194 189 192 249 273 265 257 260 265 263 258 260 262 258 250 242 237 237 240 241 238 230 222 219 223 227 228 226 221 214 208 206 208 212 214 210 202 199 200 201 199 191 178 171 176 181 178 175 176 176 173 168 169 173 176 176 176 177 180 186 199 209 212 222 243 261 256 247 256 263 262 264 269 269 267 269 272
21 35 43 53 138 174 185 198 215 220 223 256 301 301 297 300 301 293 282 274 270 261 248 234 224 223 227 226 218 208 202 201 205 211 215 216 216 213 208 204 201 199 198 197 197 198 199 198 196 191 184 182 186 188 186 183 182 181 180 179 181 185 187 184 178 175 175 179 186 193 206 228 246 259 261 258 262 265 263 268 276 276 271 271 273
2 357 358 9 32 160 197 217 232 242 255 267 283 304 335 340 299 275 242 210 204 202 200 203 207 214 221 214 197 187 192 203 207 203 196 194 198 200 200 201 204 202 194 189 189 191 193 194 194 194 192 192 193 193 191 190 191 193 194 197 197 196 194 193 193 195 197 197 194 194 201 211 222 241 259 265 268 269 268 271 277 276 272 272 272
3 360 356 359 6 14 16 6 291 265 273 265 254 255 247 226 231 225 204 190 185 182 184 189 192 195 201 205 202 199 202 208 210 204 196 194 196 195 193 194 196 193 185 180 182 185 188 189 191 192 194 196 200 202 200 200 204 208 209 212 216 214 208 206 209 215 220 224 224 224 224 225 228 240 253 259 262 265 269 272 273 273 273 273 272
5 12 15 13 14 21 25 13 325 275 247 209 192 186 194 205 208 207 206 201 192 186 186 187 184 178 175 176 177 176 175 172 173 176 177 176 174 175 175 173 169 165 163 165 169 173 174 175 174 174 174 177 184 193 198 202 209 219 223 225 226 225 221 221 224 228 234 239 244 247 249 248 249 256 265 267 266 266 269 271 270 270 270 270 269
17 19 23 25 26 31 33 13 274 239 216 193 172 163 165 170 173 178 186 187 184 185 185 183 179 175 171 167 163 158 155 152 150 149 151 154 155 155 156 158 160 162 163 161 155 149 147 150 155 160 167 174 183 191 196 197 200 207 214 220 226 231 234 236 239 243 248 252 256 258 258 257 254 252 254 256 257 258 260 261 261 263 266 267 267
27 26 27 30 33 39 53 93 142 169 185 185 173 161 151 142 138 141 148 156 161 166 168 169 170 167 164 162 160 157 154 152 149 147 147 149 151 153 155 158 161 163 162 159 155 152 153 157 163 171 182 195 204 208 208 206 207 211 218 228 238 245 248 249 250 250 251 253 255 256 257 257 256 253 253 255 255 256 258 258 258 260 262 261 259